[[{"header":{"parameterUnit":"m.s-1","parameterCategory":1,"la1":30.2991,"la2":30.254,"lo1":-89.0895,"lo2":-89.0444,"dy":0.0017,"dx":0.0017,"nx":28,"ny":28,"refTime":"2024-03-17T09:00:00:Z","depth":0,"parameterNumber":2,"parameterNumberName":"U-component_of_WINDS"},"data":[0,0,0,0,0,0,0,0,0,0,0,0,0,0,0,0,0,0,0,0,0,0,0,0,0,0,0,0,0,0,0,0,0,0,0,0,0,0,0,0,0,0,0,0,0,0,0,0,0,0,0,0,0,0,0,0,0,0,-0.049,-0.0489,0,-0.0437,-0.0437,-0.0436,-0.0439,-0.044,-0.0441,-0.0441,-0.0387,-0.0385,-0.0383,0,0,0,0,0,0,0,0,0,0,0,0,0,-0.0592,-0.059,-0.049,-0.0489,-0.0489,-0.0437,-0.0437,-0.0436,-0.0439,-0.044,-0.0441,-0.0442,-0.0388,-0.0386,-0.0383,0,0,0,0,0,0,0,0,0,0,0,0,0,-0.0544,-0.059,-0.049,-0.0484,-0.0483,-0.0438,-0.0437,-0.0436,-0.0439,-0.044,-0.0441,-0.0442,-0.0389,-0.0386,-0.0383,-0.034,0,0,-0.0373,-0.0371,0,0,0,0,0,0,0,0,-0.0547,-0.0541,-0.0485,-0.0484,-0.0483,-0.0446,-0.0453,-0.0404,-0.0438,-0.0455,-0.0441,-0.0443,-0.0406,-0.0401,-0.0389,-0.0338,-0.0335,-0.0373,-0.0371,-0.0369,-0.0368,0,0,0,0,0,0,0,-0.055,-0.0543,-0.0469,-0.0485,-0.0483,-0.0484,-0.0478,-0.0444,-0.0425,-0.0454,-0.0454,-0.0448,-0.0405,-0.0392,-0.0388,-0.0334,-0.0373,-0.037,-0.0368,-0.0367,-0.0245,-0.0244,0,0,0,0,0,0,-0.0555,-0.0546,-0.0471,-0.0468,-0.0519,-0.0481,-0.0475,-0.0457,-0.0425,-0.0422,-0.0447,-0.0448,-0.0397,-0.0392,-0.0386,-0.0334,-0.0369,-0.0366,-0.0364,-0.0246,-0.0245,-0.0243,0,0,0,0,0,0,-0.0557,-0.0548,-0.0473,-0.0507,-0.0497,-0.0478,-0.0458,-0.0455,-0.0442,-0.042,-0.0417,-0.0437,-0.0398,-0.039,-0.0351,-0.0332,-0.0365,-0.0362,-0.0248,-0.0246,-0.0244,-0.023,0,0,0,0,0,0,-0.056,-0.0549,-0.0533,-0.0506,-0.0495,-0.0439,-0.0456,-0.0453,-0.0436,-0.0437,-0.041,-0.0406,-0.0398,-0.0356,-0.0348,-0.0328,-0.0359,-0.0249,-0.0247,-0.0245,-0.0232,-0.0227,-0.0224,0,0,0,0,0,-0.0564,-0.0531,-0.0532,-0.0523,-0.0475,-0.0438,-0.0432,-0.0423,-0.0435,-0.0418,-0.0404,-0.0407,-0.0335,-0.0352,-0.0343,-0.0322,-0.0251,-0.0248,-0.0245,-0.0233,-0.0228,-0.0224,0,0,0,0,0,0,-0.0557,-0.0528,-0.0528,-0.0486,-0.0465,-0.0439,-0.0418,-0.0418,-0.0393,-0.0395,-0.0386,-0.0379,-0.034,-0.0327,-0.0346,-0.0279,-0.0294,-0.029,-0.0289,-0.0284,-0.028,-0.0284,-0.0357,0,0,0,0,0,-0.055,-0.0523,-0.0499,-0.0464,-0.0453,-0.0437,-0.0421,-0.0416,-0.0394,-0.0385,-0.0368,-0.0345,-0.0318,-0.03,-0.0273,-0.023,-0.0223,-0.021,-0.0206,-0.0203,-0.0199,-0.0175,-0.0169,-0.0234,-0.0234,-0.0234,0,0,-0.0536,-0.0517,-0.0501,-0.0462,-0.0445,-0.0417,-0.043,-0.04,-0.0379,-0.038,-0.0342,-0.0329,-0.0303,-0.0262,-0.0242,-0.0249,-0.018,-0.02,-0.0197,-0.0195,-0.0171,-0.0165,-0.016,-0.0232,-0.0232,-0.0232,0,0,-0.0497,-0.048,-0.0448,-0.0431,-0.0404,-0.0394,-0.0386,-0.036,-0.0351,-0.0313,-0.0313,-0.0288,-0.0241,-0.0223,-0.0207,-0.016,-0.0162,-0.0151,-0.0131,-0.0107,-0.0102,-0.0097,-0.008,-0.0074,-0.0147,-0.0147,-0.0147,0,-0.0483,-0.0441,-0.0432,-0.0402,-0.0385,-0.0384,-0.0352,-0.0336,-0.0302,-0.029,-0.0298,-0.0239,-0.0222,-0.0175,-0.0164,-0.0151,-0.0142,-0.0155,-0.0103,-0.0098,-0.0094,-0.0078,-0.0071,-0.0146,-0.0146,-0.0147,-0.0147,0,-0.0425,-0.0396,-0.0374,-0.0341,-0.0322,-0.0291,-0.0277,-0.0258,-0.0255,-0.0243,-0.0204,-0.0183,-0.0152,-0.0141,-0.0137,-0.0094,-0.0099,-0.0105,-0.0121,-0.0087,-0.0072,-0.0065,-0.0145,-0.0145,-0.0145,-0.0146,0,0,-0.0381,-0.0343,-0.0335,-0.032,-0.029,-0.0268,-0.0236,-0.0206,-0.019,-0.0166,-0.014,-0.0099,-0.0105,-0.0087,-0.0081,-0.006,-0.0024,-0.0069,-0.0069,-0.0062,0.0025,0.003,0.0037,-0.0025,-0.0024,-0.0023,0.0023,0,-0.0339,-0.0283,-0.0274,-0.0225,-0.0198,-0.0197,-0.0169,-0.0148,-0.0136,-0.0111,-0.0098,-0.007,-0.0079,-0.0068,-0.0047,-0.0033,-0.0006,-0.0036,0.0,0.0001,-0.0007,0.0045,0.0049,0.0091,0.0029,0.003,0.0031,0,-0.0282,-0.0257,-0.0206,-0.0179,-0.0167,-0.0143,-0.0114,-0.009,-0.0066,-0.0059,-0.0038,-0.0035,-0.0002,-0.0019,0.0027,0.0007,0.0022,0.0032,0.0034,0.0037,0.0018,0.0049,0.0105,0.0111,0.0041,0.004,0.0039,0,-0.0255,-0.0208,-0.0171,-0.0158,-0.0127,-0.0109,-0.0095,-0.0072,-0.0054,-0.0029,-0.0017,0.0012,0.0028,0.005,0.0062,0.0049,0.0107,0.0091,0.0113,0.0113,0.0125,0.0124,0.0184,0.0136,0.0136,0.0135,0.0135,0,-0.0209,-0.0178,-0.0159,-0.0136,-0.0101,-0.009,-0.0055,-0.0041,-0.002,0.0005,0.0008,0.0032,0.0046,0.0072,0.0081,0.0117,0.0125,0.0131,0.0133,0.0131,0.013,0.0141,0.0138,0.0137,0.0137,0.0136,0.0136,0,-0.0173,-0.0159,-0.0119,-0.0092,-0.0084,-0.0059,-0.0036,-0.0014,-0.0001,0.0031,0.0039,0.0058,0.0089,0.0103,0.0141,0.0147,0.0188,0.0189,0.018,0.0181,0.0202,0.02,0.0271,0.028,0.0226,0.0227,0.0227,0,-0.0145,-0.0121,-0.0091,-0.0074,-0.0059,-0.0031,-0.0013,-0.0001,0.0018,0.0049,0.0067,0.0098,0.0124,0.0173,0.019,0.022,0.022,0.0243,0.0224,0.0221,0.022,0.0218,0.0221,0.0246,0.0246,0.0247,0.0247,0,-0.0097,-0.0091,-0.0065,-0.0035,-0.0013,0.001,0.0033,0.0047,0.0063,0.0084,0.0116,0.0136,0.0175,0.0206,0.0236,0.0251,0.0252,0.0253,0.026,0.0257,0.0251,0.0255,0.0189,0.0251,0.0251,0.0251,0.025,0.025,-0.0064,-0.0043,-0.0018,0.0011,0.003,0.0052,0.0074,0.0089,0.0116,0.0149,0.0155,0.0188,0.0213,0.0254,0.027,0.0297,0.0291,0.0301,0.0303,0.0306,0.0307,0.0248,0.0303,0.0302,0.0302,0.0302,0.0302,0,-0.0016,-0.0,0.0027,0.0059,0.0083,0.0082,0.0108,0.0127,0.0157,0.018,0.0205,0.0242,0.0272,0.0292,0.0323,0.034,0.0342,0.0348,0.0346,0.035,0.031,0.0301,0.0346,0.0346,0.0346,0.0346,0.0346,0.0346,0.0011,0.0048,0.0057,0.0104,0.012,0.0153,0.0168,0.0188,0.0206,0.0247,0.0272,0.0285,0.0307,0.034,0.0367,0.0373,0.0383,0.039,0.0395,0.0357,0.0353,0.0348,0.034,0.0393,0.0393,0.0432,0.0433,0.0433]},{"header":{"parameterUnit":"m.s-1","parameterCategory":1,"la1":30.2991,"la2":30.254,"lo1":-89.0895,"lo2":-89.0444,"dy":0.0017,"dx":0.0017,"nx":28,"ny":28,"refTime":"2024-03-17T09:00:00:Z","depth":0,"parameterNumber":3,"parameterNumberName":"V-component_of_WINDS"},"data":[0,0,0,0,0,0,0,0,0,0,0,0,0,0,0,0,0,0,0,0,0,0,0,0,0,0,0,0,0,0,0,0,0,0,0,0,0,0,0,0,0,0,0,0,0,0,0,0,0,0,0,0,0,0,0,0,0,0,-3.1918,-3.1919,0,-3.198,-3.1981,-3.1981,-3.2041,-3.2042,-3.2043,-3.2043,-3.21,-3.2101,-3.2102,0,0,0,0,0,0,0,0,0,0,0,0,0,-3.1847,-3.1848,-3.1918,-3.1919,-3.192,-3.198,-3.1981,-3.1981,-3.2041,-3.2042,-3.2043,-3.2044,-3.21,-3.2101,-3.2102,0,0,0,0,0,0,0,0,0,0,0,0,0,-3.189,-3.1848,-3.1918,-3.1957,-3.1961,-3.198,-3.1981,-3.1982,-3.2041,-3.2042,-3.2043,-3.2044,-3.21,-3.2101,-3.2102,-3.2085,0,0,-3.2105,-3.2106,0,0,0,0,0,0,0,0,-3.1888,-3.1893,-3.195,-3.1954,-3.1959,-3.2004,-3.1977,-3.2016,-3.2041,-3.201,-3.2043,-3.2045,-3.2067,-3.2071,-3.208,-3.2088,-3.209,-3.2106,-3.2106,-3.2107,-3.2107,0,0,0,0,0,0,0,-3.1885,-3.189,-3.1942,-3.1951,-3.1956,-3.197,-3.1977,-3.1984,-3.2031,-3.2013,-3.2017,-3.2024,-3.2069,-3.2078,-3.2081,-3.2091,-3.2106,-3.2107,-3.2107,-3.2108,-3.209,-3.2089,0,0,0,0,0,0,-3.1876,-3.1887,-3.194,-3.1944,-3.1926,-3.197,-3.1978,-3.1988,-3.2031,-3.2039,-3.2023,-3.2027,-3.2076,-3.208,-3.2083,-3.2067,-3.2107,-3.2108,-3.2108,-3.2091,-3.209,-3.2089,0,0,0,0,0,0,-3.1875,-3.1881,-3.1938,-3.1917,-3.1926,-3.197,-3.1981,-3.1989,-3.1998,-3.2039,-3.2047,-3.2024,-3.2077,-3.2082,-3.2085,-3.207,-3.2108,-3.2109,-3.2093,-3.2091,-3.2089,-3.2034,0,0,0,0,0,0,-3.1872,-3.188,-3.1874,-3.1917,-3.1926,-3.1939,-3.198,-3.1989,-3.2001,-3.2006,-3.2042,-3.2049,-3.2078,-3.2083,-3.2086,-3.2072,-3.211,-3.2094,-3.2092,-3.209,-3.2037,-3.2031,-3.2025,0,0,0,0,0,-3.187,-3.1855,-3.1874,-3.188,-3.1921,-3.1939,-3.1944,-3.198,-3.1999,-3.1994,-3.2021,-3.2048,-3.2072,-3.2083,-3.2087,-3.2073,-3.2095,-3.2093,-3.209,-3.204,-3.2032,-3.2025,0,0,0,0,0,0,-3.1806,-3.1861,-3.1883,-3.1881,-3.1905,-3.1949,-3.1943,-3.197,-3.1987,-3.1991,-3.2033,-3.204,-3.2039,-3.2057,-3.2068,-3.206,-3.2087,-3.2085,-3.2048,-3.2041,-3.2035,-3.2029,-3.2111,0,0,0,0,0,-3.1793,-3.1804,-3.1851,-3.1845,-3.1856,-3.1897,-3.1906,-3.1932,-3.1958,-3.1967,-3.1994,-3.2016,-3.2029,-3.2036,-3.205,-3.2041,-3.205,-3.2034,-3.2028,-3.2022,-3.2019,-3.2017,-3.201,-3.208,-3.208,-3.208,0,0,-3.1763,-3.1795,-3.1799,-3.1833,-3.1854,-3.1864,-3.1905,-3.1913,-3.192,-3.1968,-3.1973,-3.1994,-3.2021,-3.2019,-3.2019,-3.2033,-3.2003,-3.2019,-3.2014,-3.2015,-3.2013,-3.2007,-3.2001,-3.2078,-3.2079,-3.2079,0,0,-3.1715,-3.1741,-3.1739,-3.1761,-3.1795,-3.1823,-3.1823,-3.1863,-3.1879,-3.1886,-3.1922,-3.1931,-3.1952,-3.197,-3.1982,-3.1944,-3.197,-3.1948,-3.1914,-3.1911,-3.1905,-3.1901,-3.1887,-3.1881,-3.1945,-3.1945,-3.1945,0,-3.1674,-3.1692,-3.1734,-3.1741,-3.1755,-3.1802,-3.1801,-3.1819,-3.1854,-3.1862,-3.1878,-3.1907,-3.1929,-3.1931,-3.1923,-3.1931,-3.1931,-3.1942,-3.1903,-3.1899,-3.1895,-3.1882,-3.1877,-3.1942,-3.1942,-3.1943,-3.1943,0,-3.1639,-3.1651,-3.1646,-3.1682,-3.1695,-3.1697,-3.1739,-3.1748,-3.1773,-3.1799,-3.1806,-3.1834,-3.1855,-3.1858,-3.1882,-3.1864,-3.1873,-3.1896,-3.1924,-3.1885,-3.1873,-3.1869,-3.1938,-3.1939,-3.194,-3.194,0,0,-3.1549,-3.1613,-3.161,-3.1627,-3.1669,-3.1678,-3.1683,-3.1706,-3.1712,-3.1736,-3.174,-3.1758,-3.178,-3.1794,-3.1821,-3.1818,-3.1786,-3.1842,-3.1843,-3.1829,-3.1768,-3.175,-3.1743,-3.1805,-3.1804,-3.1803,-3.1766,0,-3.1508,-3.1521,-3.1561,-3.1561,-3.1573,-3.162,-3.1624,-3.1649,-3.1674,-3.1686,-3.1713,-3.1726,-3.1754,-3.1763,-3.1763,-3.179,-3.1774,-3.1794,-3.1807,-3.1807,-3.1797,-3.1738,-3.1718,-3.1681,-3.1762,-3.1761,-3.176,0,-3.1459,-3.1483,-3.1486,-3.153,-3.1536,-3.1539,-3.1564,-3.1576,-3.1606,-3.1624,-3.1641,-3.1672,-3.1679,-3.1706,-3.1715,-3.1727,-3.1735,-3.175,-3.1749,-3.175,-3.178,-3.1736,-3.167,-3.1664,-3.1754,-3.1754,-3.1755,0,-3.1393,-3.1426,-3.1432,-3.1446,-3.1497,-3.1498,-3.1519,-3.155,-3.1563,-3.1584,-3.1593,-3.1614,-3.1625,-3.164,-3.1675,-3.1692,-3.168,-3.171,-3.1694,-3.1693,-3.1687,-3.1687,-3.1621,-3.1695,-3.1695,-3.1695,-3.1695,0,-3.1341,-3.134,-3.1403,-3.1406,-3.1408,-3.1454,-3.1453,-3.1478,-3.1506,-3.1514,-3.1555,-3.1561,-3.1609,-3.162,-3.1648,-3.1651,-3.1656,-3.167,-3.1676,-3.1665,-3.1663,-3.167,-3.1672,-3.1694,-3.1694,-3.1694,-3.1694,0,-3.1266,-3.1308,-3.1318,-3.1367,-3.138,-3.1378,-3.1419,-3.1424,-3.1453,-3.1463,-3.1468,-3.1512,-3.1528,-3.1566,-3.1591,-3.161,-3.1605,-3.1619,-3.1595,-3.16,-3.1581,-3.1582,-3.1515,-3.1508,-3.1587,-3.1587,-3.1586,0,-3.1229,-3.123,-3.1281,-3.1291,-3.1312,-3.1327,-3.1341,-3.1386,-3.1398,-3.1434,-3.1434,-3.1454,-3.1472,-3.1495,-3.1528,-3.1548,-3.1562,-3.1538,-3.1565,-3.1554,-3.156,-3.1559,-3.156,-3.153,-3.1529,-3.1528,-3.1528,0,-3.1159,-3.1181,-3.1201,-3.1228,-3.1244,-3.1267,-3.1292,-3.1297,-3.1349,-3.136,-3.1379,-3.1394,-3.1421,-3.144,-3.1465,-3.1485,-3.1514,-3.152,-3.1517,-3.1504,-3.149,-3.1497,-3.1578,-3.152,-3.1521,-3.1521,-3.1522,-3.1522,-3.1101,-3.1105,-3.1143,-3.1164,-3.1188,-3.1212,-3.1219,-3.1251,-3.1268,-3.1296,-3.1322,-3.1337,-3.1368,-3.1406,-3.1424,-3.1436,-3.1451,-3.1447,-3.1445,-3.1443,-3.1438,-3.149,-3.1441,-3.1441,-3.1441,-3.1441,-3.1442,0,-3.1033,-3.1061,-3.108,-3.1115,-3.1132,-3.1163,-3.1192,-3.1203,-3.1218,-3.1246,-3.1264,-3.1286,-3.1305,-3.1341,-3.1363,-3.1365,-3.138,-3.1369,-3.1369,-3.1373,-3.1424,-3.1424,-3.1358,-3.1358,-3.1358,-3.1358,-3.1358,-3.1358,-3.0999,-3.1008,-3.1035,-3.1056,-3.1083,-3.1101,-3.1116,-3.1137,-3.116,-3.1183,-3.1201,-3.1226,-3.1257,-3.1282,-3.13,-3.131,-3.1316,-3.1301,-3.1315,-3.1361,-3.1369,-3.1377,-3.1377,-3.1302,-3.1302,-3.1264,-3.1263,-3.1263]}]]